[[{"header":{"parameterUnit":"m.s-1","parameterCategory":1,"la1":30.2991,"la2":30.254,"lo1":-89.0895,"lo2":-89.0444,"dy":0.0017,"dx":0.0017,"nx":28,"ny":28,"refTime":"2025-03-08T09:00:00:Z","depth":0,"parameterNumber":2,"parameterNumberName":"U-component_of_WINDS"},"data":[0,0,0,0,0,0,0,0,0,0,0,0,0,0,0,0,0,0,0,0,0,0,0,0,0,0,0,0,0,0,0,0,0,0,0,0,0,0,0,0,0,0,0,0,0,0,0,0,0,0,0,0,0,0,0,0,0,0,-0.8958,-0.8959,0,-0.9021,-0.9022,-0.9022,-0.9029,-0.9028,-0.9027,-0.9027,-0.9093,-0.9095,-0.9097,0,0,0,0,0,0,0,0,0,0,0,0,0,-0.8845,-0.8847,-0.8958,-0.8959,-0.896,-0.9021,-0.9022,-0.9023,-0.9029,-0.9028,-0.9027,-0.9026,-0.9092,-0.9095,-0.9097,0,0,0,0,0,0,0,0,0,0,0,0,0,-0.8899,-0.8847,-0.8958,-0.897,-0.8972,-0.9021,-0.9022,-0.9023,-0.9029,-0.9028,-0.9027,-0.9026,-0.9091,-0.9094,-0.9098,-0.9139,0,0,-0.9109,-0.911,0,0,0,0,0,0,0,0,-0.8896,-0.8904,-0.8968,-0.897,-0.8971,-0.9016,-0.9006,-0.9062,-0.9029,-0.9007,-0.9027,-0.9025,-0.9068,-0.9073,-0.9087,-0.9143,-0.9145,-0.9109,-0.9111,-0.9113,-0.9114,0,0,0,0,0,0,0,-0.8892,-0.8901,-0.8983,-0.8969,-0.8971,-0.8973,-0.8979,-0.9016,-0.9043,-0.9009,-0.901,-0.9017,-0.9069,-0.9084,-0.9089,-0.9146,-0.9109,-0.9112,-0.9114,-0.9116,-0.9237,-0.9238,0,0,0,0,0,0,-0.8886,-0.8898,-0.8981,-0.8985,-0.8931,-0.8976,-0.8983,-0.9003,-0.9042,-0.9047,-0.9018,-0.9017,-0.9078,-0.9085,-0.9091,-0.9141,-0.9113,-0.9116,-0.9118,-0.9236,-0.9237,-0.9238,0,0,0,0,0,0,-0.8884,-0.8894,-0.8979,-0.8942,-0.8952,-0.8979,-0.9001,-0.9004,-0.9019,-0.9049,-0.9053,-0.9028,-0.9078,-0.9086,-0.9127,-0.9144,-0.9118,-0.9121,-0.9234,-0.9236,-0.9238,-0.9242,0,0,0,0,0,0,-0.888,-0.8893,-0.8909,-0.8942,-0.8954,-0.9013,-0.9002,-0.9006,-0.9025,-0.9025,-0.906,-0.9065,-0.9078,-0.9121,-0.913,-0.9148,-0.9124,-0.9233,-0.9235,-0.9237,-0.924,-0.9244,-0.9246,0,0,0,0,0,-0.8876,-0.8908,-0.891,-0.892,-0.8975,-0.9014,-0.9021,-0.9035,-0.9027,-0.9043,-0.9061,-0.9063,-0.914,-0.9126,-0.9136,-0.9155,-0.9232,-0.9235,-0.9237,-0.9239,-0.9243,-0.9246,0,0,0,0,0,0,-0.8878,-0.8913,-0.8915,-0.8958,-0.8983,-0.9015,-0.9036,-0.9039,-0.9067,-0.9066,-0.9083,-0.909,-0.913,-0.9147,-0.9129,-0.9196,-0.9185,-0.919,-0.9184,-0.9187,-0.919,-0.9185,-0.9127,0,0,0,0,0,-0.8883,-0.8911,-0.8941,-0.8976,-0.8988,-0.901,-0.9028,-0.9036,-0.9063,-0.9073,-0.9095,-0.9121,-0.9151,-0.917,-0.9199,-0.9243,-0.925,-0.9261,-0.9264,-0.9266,-0.9269,-0.9292,-0.9297,-0.9246,-0.9246,-0.9246,0,0,-0.8894,-0.8917,-0.8934,-0.8977,-0.8997,-0.9026,-0.9019,-0.905,-0.9072,-0.9078,-0.9117,-0.9134,-0.9164,-0.9206,-0.9225,-0.9221,-0.9285,-0.9269,-0.9271,-0.9273,-0.9295,-0.93,-0.9304,-0.9248,-0.9248,-0.9247,0,0,-0.8929,-0.895,-0.8981,-0.9001,-0.9031,-0.9045,-0.9052,-0.9083,-0.9094,-0.9133,-0.9138,-0.9164,-0.9216,-0.9236,-0.9254,-0.9295,-0.9297,-0.9304,-0.9319,-0.9341,-0.9344,-0.9348,-0.9361,-0.9366,-0.9307,-0.9307,-0.9307,0,-0.894,-0.8983,-0.8997,-0.9027,-0.9045,-0.9051,-0.9083,-0.9102,-0.914,-0.9152,-0.9147,-0.921,-0.9231,-0.9277,-0.9286,-0.9301,-0.9309,-0.93,-0.9343,-0.9347,-0.935,-0.9363,-0.9368,-0.9308,-0.9308,-0.9308,-0.9308,0,-0.8994,-0.9024,-0.9045,-0.9081,-0.9101,-0.9132,-0.915,-0.917,-0.9176,-0.919,-0.9229,-0.9254,-0.9288,-0.9299,-0.9307,-0.9346,-0.9342,-0.9339,-0.9329,-0.9355,-0.9367,-0.9373,-0.9309,-0.9308,-0.9308,-0.9308,0,0,-0.9033,-0.9073,-0.9081,-0.9096,-0.9129,-0.9153,-0.9183,-0.9215,-0.9231,-0.9257,-0.9282,-0.9325,-0.9322,-0.9342,-0.9351,-0.937,-0.9399,-0.9365,-0.9366,-0.937,-0.9442,-0.9443,-0.9449,-0.9401,-0.9402,-0.9403,-0.9439,0,-0.9071,-0.9124,-0.9137,-0.9183,-0.921,-0.9215,-0.9242,-0.9265,-0.9279,-0.9304,-0.9319,-0.9349,-0.9343,-0.9355,-0.9374,-0.9392,-0.9414,-0.9389,-0.9425,-0.9426,-0.9416,-0.9456,-0.9457,-0.9491,-0.9445,-0.9445,-0.9446,0,-0.9122,-0.9148,-0.9196,-0.9224,-0.9236,-0.9259,-0.9288,-0.9312,-0.9338,-0.9347,-0.9368,-0.9374,-0.9406,-0.9394,-0.9437,-0.942,-0.9435,-0.9446,-0.9448,-0.9451,-0.9437,-0.9459,-0.9502,-0.9506,-0.9454,-0.9453,-0.9453,0,-0.9144,-0.9191,-0.9225,-0.9238,-0.9272,-0.9288,-0.9303,-0.9327,-0.9345,-0.9371,-0.9382,-0.9412,-0.9427,-0.945,-0.9464,-0.9454,-0.9506,-0.9496,-0.9513,-0.9513,-0.9524,-0.9523,-0.9568,-0.9535,-0.9535,-0.9535,-0.9535,0,-0.9185,-0.9214,-0.9235,-0.9256,-0.9289,-0.9302,-0.9334,-0.9349,-0.9371,-0.9395,-0.9402,-0.9424,-0.9442,-0.9467,-0.9479,-0.9512,-0.9519,-0.9527,-0.9529,-0.9526,-0.9525,-0.9535,-0.9533,-0.9536,-0.9536,-0.9536,-0.9535,0,-0.9214,-0.923,-0.9267,-0.9295,-0.9303,-0.9325,-0.9349,-0.937,-0.9383,-0.9414,-0.9421,-0.9443,-0.9472,-0.9489,-0.9526,-0.9534,-0.957,-0.9572,-0.9561,-0.9562,-0.9579,-0.9576,-0.9632,-0.964,-0.9602,-0.9602,-0.9603,0,-0.9239,-0.9261,-0.9291,-0.9307,-0.9321,-0.9347,-0.9365,-0.9379,-0.9397,-0.9427,-0.9444,-0.9473,-0.9497,-0.9544,-0.9563,-0.9591,-0.9593,-0.9611,-0.9598,-0.9592,-0.9592,-0.959,-0.9592,-0.9613,-0.9613,-0.9613,-0.9614,0,-0.928,-0.9286,-0.9311,-0.9338,-0.9358,-0.9381,-0.9403,-0.9416,-0.9433,-0.9453,-0.9482,-0.9501,-0.9538,-0.9567,-0.9596,-0.9612,-0.9615,-0.9617,-0.9623,-0.9619,-0.9611,-0.9614,-0.9566,-0.9616,-0.9616,-0.9616,-0.9616,-0.9616,-0.9307,-0.9327,-0.935,-0.9377,-0.9394,-0.9414,-0.9435,-0.945,-0.9474,-0.9505,-0.9512,-0.9542,-0.9566,-0.9606,-0.9622,-0.9646,-0.9643,-0.9651,-0.9653,-0.9654,-0.9654,-0.9608,-0.9651,-0.9651,-0.9651,-0.9651,-0.9651,0,-0.9348,-0.9363,-0.9387,-0.9417,-0.9438,-0.9439,-0.9463,-0.948,-0.9507,-0.9528,-0.9551,-0.9584,-0.9612,-0.9632,-0.966,-0.9676,-0.9678,-0.9683,-0.9681,-0.9684,-0.9656,-0.9648,-0.968,-0.968,-0.968,-0.968,-0.968,-0.968,-0.9372,-0.9404,-0.9412,-0.9453,-0.9468,-0.9497,-0.9511,-0.9529,-0.9546,-0.9582,-0.9604,-0.9617,-0.9638,-0.9667,-0.9692,-0.9698,-0.9707,-0.9711,-0.9717,-0.969,-0.9687,-0.9684,-0.9676,-0.9714,-0.9714,-0.9743,-0.9743,-0.9743]},{"header":{"parameterUnit":"m.s-1","parameterCategory":1,"la1":30.2991,"la2":30.254,"lo1":-89.0895,"lo2":-89.0444,"dy":0.0017,"dx":0.0017,"nx":28,"ny":28,"refTime":"2025-03-08T09:00:00:Z","depth":0,"parameterNumber":3,"parameterNumberName":"V-component_of_WINDS"},"data":[0,0,0,0,0,0,0,0,0,0,0,0,0,0,0,0,0,0,0,0,0,0,0,0,0,0,0,0,0,0,0,0,0,0,0,0,0,0,0,0,0,0,0,0,0,0,0,0,0,0,0,0,0,0,0,0,0,0,-1.3166,-1.3165,0,-1.3059,-1.3057,-1.3056,-1.304,-1.3041,-1.3042,-1.3043,-1.2927,-1.2923,-1.2919,0,0,0,0,0,0,0,0,0,0,0,0,0,-1.335,-1.3347,-1.3167,-1.3165,-1.3164,-1.3059,-1.3057,-1.3056,-1.304,-1.3041,-1.3043,-1.3044,-1.2928,-1.2923,-1.2919,0,0,0,0,0,0,0,0,0,0,0,0,0,-1.3259,-1.3346,-1.3167,-1.3144,-1.314,-1.3059,-1.3057,-1.3055,-1.304,-1.3041,-1.3043,-1.3044,-1.293,-1.2924,-1.2918,-1.2851,0,0,-1.29,-1.2897,0,0,0,0,0,0,0,0,-1.3264,-1.3252,-1.3148,-1.3145,-1.3141,-1.3065,-1.3079,-1.2987,-1.3039,-1.3078,-1.3043,-1.3045,-1.2971,-1.2962,-1.2938,-1.2845,-1.284,-1.2899,-1.2895,-1.2893,-1.2891,0,0,0,0,0,0,0,-1.327,-1.3257,-1.3124,-1.3147,-1.3142,-1.3135,-1.3124,-1.3062,-1.3017,-1.3075,-1.3073,-1.3061,-1.2969,-1.2944,-1.2935,-1.2838,-1.2899,-1.2894,-1.289,-1.2888,-1.2677,-1.2675,0,0,0,0,0,0,-1.3282,-1.3262,-1.3127,-1.312,-1.3208,-1.3131,-1.3118,-1.3088,-1.3018,-1.3009,-1.306,-1.3061,-1.2954,-1.2942,-1.2931,-1.2842,-1.2893,-1.2887,-1.2884,-1.2679,-1.2677,-1.2675,0,0,0,0,0,0,-1.3286,-1.327,-1.3131,-1.3191,-1.3173,-1.3126,-1.3092,-1.3085,-1.3059,-1.3007,-1.2998,-1.3042,-1.2954,-1.294,-1.2869,-1.2838,-1.2884,-1.2879,-1.2682,-1.2679,-1.2676,-1.2668,0,0,0,0,0,0,-1.3291,-1.3272,-1.3248,-1.319,-1.317,-1.3075,-1.309,-1.3081,-1.3049,-1.305,-1.2988,-1.2979,-1.2954,-1.2879,-1.2863,-1.2831,-1.2874,-1.2684,-1.268,-1.2677,-1.2671,-1.2665,-1.266,0,0,0,0,0,-1.3298,-1.3251,-1.3247,-1.3231,-1.3139,-1.3073,-1.3061,-1.3035,-1.3047,-1.3021,-1.2986,-1.2981,-1.2845,-1.2872,-1.2854,-1.2819,-1.2686,-1.2681,-1.2677,-1.2673,-1.2666,-1.266,0,0,0,0,0,0,-1.3305,-1.3243,-1.3238,-1.3171,-1.3127,-1.3071,-1.3037,-1.3029,-1.298,-1.2981,-1.2949,-1.2935,-1.2865,-1.2836,-1.2867,-1.2747,-1.2766,-1.2758,-1.2769,-1.2762,-1.2757,-1.2763,-1.2869,0,0,0,0,0,-1.3299,-1.3253,-1.32,-1.3145,-1.3124,-1.3084,-1.3054,-1.3038,-1.299,-1.2971,-1.2932,-1.2884,-1.2829,-1.2795,-1.2742,-1.2667,-1.265,-1.2634,-1.2629,-1.2625,-1.2617,-1.2568,-1.2558,-1.266,-1.266,-1.266,0,0,-1.3285,-1.3246,-1.3218,-1.3146,-1.311,-1.3059,-1.3069,-1.3016,-1.2976,-1.2963,-1.2893,-1.2862,-1.2806,-1.2732,-1.2697,-1.2705,-1.2585,-1.2619,-1.2616,-1.261,-1.2562,-1.2553,-1.2544,-1.2657,-1.2658,-1.2658,0,0,-1.3234,-1.3202,-1.315,-1.3113,-1.3059,-1.3032,-1.302,-1.2963,-1.2942,-1.2872,-1.2859,-1.281,-1.2719,-1.2678,-1.2645,-1.2573,-1.2564,-1.2557,-1.2528,-1.2481,-1.2473,-1.2465,-1.2434,-1.2423,-1.255,-1.255,-1.255,0,-1.3223,-1.3149,-1.3124,-1.307,-1.3036,-1.3022,-1.2966,-1.2932,-1.2862,-1.2837,-1.2848,-1.2729,-1.2691,-1.2603,-1.2585,-1.2561,-1.2541,-1.2562,-1.2476,-1.2469,-1.2461,-1.243,-1.2419,-1.2549,-1.2549,-1.2549,-1.2549,0,-1.3136,-1.3083,-1.3048,-1.2981,-1.2943,-1.2889,-1.2852,-1.2816,-1.2802,-1.2772,-1.2698,-1.2651,-1.2586,-1.2565,-1.2551,-1.2473,-1.2479,-1.2484,-1.2501,-1.2451,-1.2421,-1.241,-1.2548,-1.2548,-1.2548,-1.2548,0,0,-1.3086,-1.3004,-1.2991,-1.2958,-1.2895,-1.2852,-1.2795,-1.2732,-1.2699,-1.2651,-1.2598,-1.2519,-1.2521,-1.2484,-1.2465,-1.2424,-1.2362,-1.2432,-1.243,-1.2416,-1.2266,-1.2259,-1.2246,-1.2357,-1.2355,-1.2353,-1.2268,0,-1.3024,-1.2924,-1.2897,-1.281,-1.2758,-1.2742,-1.2691,-1.2644,-1.2614,-1.2563,-1.2529,-1.2471,-1.2482,-1.2458,-1.2417,-1.2378,-1.233,-1.2385,-1.2302,-1.23,-1.2312,-1.2232,-1.2226,-1.2149,-1.2257,-1.2255,-1.2254,0,-1.2939,-1.2887,-1.2795,-1.2733,-1.271,-1.2665,-1.2602,-1.2556,-1.25,-1.248,-1.2437,-1.242,-1.2354,-1.2378,-1.2283,-1.2321,-1.2285,-1.226,-1.2257,-1.2244,-1.2271,-1.2212,-1.2124,-1.211,-1.2237,-1.2238,-1.2239,0,-1.2905,-1.2814,-1.2745,-1.2718,-1.2646,-1.2613,-1.2581,-1.2528,-1.2489,-1.2434,-1.2407,-1.2345,-1.2309,-1.2259,-1.2224,-1.2245,-1.213,-1.2152,-1.2107,-1.2108,-1.2081,-1.2082,-1.1981,-1.2066,-1.2067,-1.2067,-1.2067,0,-1.2836,-1.2779,-1.2728,-1.2685,-1.2618,-1.2587,-1.2521,-1.2488,-1.2439,-1.2386,-1.2369,-1.2319,-1.2278,-1.2221,-1.2193,-1.2115,-1.2101,-1.2079,-1.2071,-1.2078,-1.208,-1.2051,-1.2053,-1.2064,-1.2064,-1.2065,-1.2066,0,-1.2787,-1.2752,-1.2675,-1.2612,-1.2594,-1.2547,-1.2491,-1.2446,-1.2415,-1.2348,-1.233,-1.2279,-1.2211,-1.2171,-1.2085,-1.2066,-1.1977,-1.1975,-1.1996,-1.1992,-1.1947,-1.1949,-1.1819,-1.1797,-1.1903,-1.1902,-1.1901,0,-1.2744,-1.2699,-1.263,-1.2594,-1.2561,-1.2504,-1.2464,-1.243,-1.2388,-1.2319,-1.2281,-1.2211,-1.2153,-1.2043,-1.1997,-1.1929,-1.1921,-1.188,-1.1911,-1.1916,-1.1913,-1.1914,-1.1906,-1.1874,-1.1873,-1.1872,-1.1871,0,-1.2668,-1.2651,-1.2596,-1.2533,-1.2486,-1.2434,-1.2383,-1.2353,-1.231,-1.2263,-1.2193,-1.2148,-1.2058,-1.1987,-1.1914,-1.1877,-1.1864,-1.1862,-1.1847,-1.1851,-1.1862,-1.1849,-1.1976,-1.1865,-1.1865,-1.1866,-1.1866,-1.1866,-1.2616,-1.2573,-1.2517,-1.2454,-1.2411,-1.2362,-1.2315,-1.2277,-1.2218,-1.2143,-1.2126,-1.205,-1.1989,-1.189,-1.1851,-1.1787,-1.1794,-1.1774,-1.1768,-1.1762,-1.1757,-1.1876,-1.1775,-1.1775,-1.1775,-1.1775,-1.1775,0,-1.2535,-1.2497,-1.244,-1.2367,-1.2316,-1.2311,-1.2252,-1.2208,-1.2142,-1.2088,-1.203,-1.1945,-1.1875,-1.1821,-1.1748,-1.1707,-1.1698,-1.1688,-1.1688,-1.1678,-1.1759,-1.1776,-1.1695,-1.1696,-1.1696,-1.1696,-1.1696,-1.1696,-1.2487,-1.2411,-1.2387,-1.2288,-1.2249,-1.2175,-1.2141,-1.2093,-1.2049,-1.1955,-1.1897,-1.1863,-1.1806,-1.1728,-1.166,-1.1646,-1.1617,-1.1606,-1.159,-1.1665,-1.1674,-1.1682,-1.1698,-1.1602,-1.1602,-1.1514,-1.1513,-1.1512]}]]